Regional Weather Roundup
Issued by NWS

Home | Current Version | Previous Version | Text Only | Print | Product List | Glossary Off
Versions: 1 2 3 4 5 6 7 8 9 10 11 12 13 14 15 16 17 18 19 20 21 22 23 24 25 26 27 28 29 30 31 32 33 34 35 36 37 38 39 40 41 42 43 44 45 46 47 48 49 50

000
ASUS43 KLOT 310221
RWRIL

ILLINOIS REGIONAL WEATHER ROUNDUP
NATIONAL WEATHER SERVICE CHICAGO/ROMEOVILLE IL
900 PM CDT THU JUL 30 2015

NOTE: "FAIR" INDICATES FEW OR NO CLOUDS BELOW 12,000 FEET WITH NO
SIGNIFICANT WEATHER AND/OR OBSTRUCTIONS TO VISIBILITY.

* THESE STATIONS ARE NOT UNDER NWS QUALITY CONTROL. THEY ALSO MAY NOT
  REPORT WEATHER SUCH AS PRECIPITATION OR FOG.

ILZ001-002-007-009-015-016-024-310300-
NORTHWEST ILLINOIS

CITY           SKY/WX    TMP DP  RH WIND       PRES   REMARKS
MOLINE         CLEAR     75  66  73 SW5       30.05R
STERLING*      CLEAR     72  64  78 W5        30.01R
SAVANNA*       CLEAR     78  61  54 NW5       30.03S HX  80
$$

ILZ003-004-008-010-011-017-018-310300-
NORTH CENTRAL ILLINOIS

CITY           SKY/WX    TMP DP  RH WIND       PRES   REMARKS
ROCKFORD       CLEAR     74  60  61 W6        30.03R
FREEPORT*      CLEAR     72  61  67 W6        30.05R
ROCHELLE*      CLEAR     70  64  82 CALM      30.04R
DE KALB*       CLEAR     76  62  62 W7        30.03S
PERU*          CLEAR     75  64  68 W8        30.04R
$$

ILZ005-006-012>014-019>023-310300-
NORTHEAST ILLINOIS

CITY           SKY/WX    TMP DP  RH WIND       PRES   REMARKS
CHICAGO-OHARE  CLEAR     80  59  48 W8        29.99S HX  81
CHICAGO-MIDWAY CLEAR     83  58  42 W7        29.99S HX  83
AURORA         CLEAR     73  62  68 SW7       30.02S
LANSING*       CLEAR     77  59  53 W6        30.01S
JOLIET*        CLEAR     78  65  62 CALM      30.02R HX  80
WAUKEGAN       CLEAR     75  57  53 SW3       29.98R
DUPAGE AIRPORT CLEAR     76  61  59 W7        30.00S
KANKAKEE*      CLEAR     72  66  83 SW5       30.04R
WHEELING       CLEAR     81  56  42 W6        30.00S HX  81
MORRIS*        CLEAR     74  66  75 W6        30.01S
ROMEOVILLE*    CLEAR     74  61  62 W6        30.02R
NORTHERLY ISL    N/A     82  56  40 W10         N/A  HX  82
$$

LMZ740>746-310300-
SOUTHERN LAKE MICHIGAN

STATION/POSITION SKY/WX   TEMP    WIND        PRES    VSBY  WAVE
                          AIR SEA DIR/SP/G                  HT/PER
                          (F)     (DEG/KT/KT) (MB)    (MI)  (FT/S)
HARRISON CRIB              82     260/ 12/ 14   N/A
BURNHAM HARBOR             82     240/  2/ 16   N/A
CALUMET HARBOR             81     230/  4/  8   N/A
BURNS HARBOR               80     310/  5/  8 1016.3R
MICHIGAN CITY              77     190/  6/  7   N/A
MICHIGAN CITY 6N           77 75  220/  4/  6   N/A           1
ST. JOSEPH                 76 74  260/  8/  8   N/A           1/ 3
$$

ILZ025>027-034>036-040-047-049-050-058-095>099-310300-
WEST-CENTRAL ILLINOIS

CITY           SKY/WX    TMP DP  RH WIND       PRES   REMARKS
QUINCY         CLEAR     75  67  76 SW5       30.10S
GALESBURG*     CLEAR     75  66  72 W5        30.07S
MACOMB*        CLEAR     72  67  83 W3        30.10R
JACKSONVILLE*  CLEAR     76  68  78 SW6       30.08S
PITTSFIELD*    CLEAR     78  67  68 W3        30.11S HX  80
$$

ILZ028>032-037-038-041>044-048-051>054-059>061-310300-
CENTRAL ILLINOIS

CITY           SKY/WX    TMP DP  RH WIND       PRES   REMARKS
PONTIAC        CLEAR     74  69  84 W7        30.05R
BLOOMINGTON    CLEAR     78  65  64 W8        30.07S HX  80
DECATUR        CLEAR     80  64  58 W5        30.07S HX  82
PEORIA         CLEAR     79  64  60 W6        30.06S HX  81
LACON*         CLEAR     75  67  75 W3        30.04R
LINCOLN*       CLEAR     81  64  57 CALM      30.06R HX  82
SPRINGFIELD    CLEAR     74  68  81 W7        30.07S
TAYLORVILLE    CLEAR     70  66  88 W5        30.08S
$$

ILZ033-039-045-046-055>057-062-063-310300-
EAST-CENTRAL ILLINOIS

CITY           SKY/WX    TMP DP  RH WIND       PRES   REMARKS
CHAMPAIGN      CLEAR     72  68  87 W5        30.06S
DANVILLE*      CLEAR     67  66  97 CALM      30.03S
RANTOUL*       CLEAR     76  68  77 CALM      30.06R
MATTOON        CLEAR     74  64  71 SW3       30.06S
PARIS*         CLEAR     70  67  89 CALM      30.06S
$$

ILZ079-100>102-310300-
SOUTHWEST ILLINOIS

CITY           SKY/WX    TMP DP  RH WIND       PRES   REMARKS
BELLEVILLE     PTCLDY    75  71  86 CALM      30.09R
CAHOKIA*       PTCLDY    76  64  66 CALM      30.10R
SPARTA*        PTCLDY    79  64  60 CALM      30.11R HX  80
$$

ILZ064>066-069>071-074>076-080>082-084>086-088>090-092>094-310300-
SOUTH-CENTRAL ILLINOIS

CITY           SKY/WX    TMP DP  RH WIND       PRES   REMARKS
CARBONDALE     PTCLDY    73  70  90 CALM      30.09S
CAIRO*         CLEAR     73  69  86 CALM      30.10R
EFFINGHAM*     PTCLDY    74  64  71 CALM      30.09S
MARION         CLEAR     72  68  88 CALM      30.10S
MT. VERNON     PTCLDY    72  63  73 CALM      30.11R
CENTRALIA*     PTCLDY    75  64  67 W6        30.10R
SALEM*         PTCLDY    75  69  81 W3        30.10R
METROPOLIS*    CLEAR     73  70  92 CALM      30.10R
$$

ILZ067-068-072-073-078-083-087-091-310300-
SOUTHEAST ILLINOIS

CITY           SKY/WX    TMP DP  RH WIND       PRES   REMARKS
LAWRENCEVILLE  PTCLDY    76  67  73 W6        30.07R
FLORA*         PTCLDY    76  64  67 W3        30.08S
FAIRFIELD*     PTCLDY    73  68  84 CALM      30.08R
HARRISBURG*    CLEAR     74  70  87 CALM      30.10R
ROBINSON*      PTCLDY    71  68  89 W5        30.07R
CARMI*         PTCLDY    74  65  74 CALM      30.07S
$$

ABBREVIATIONS USED IN REMARKS
   TC - TEMPERATURE IN CELSIUS
  WCI - WIND CHILL INDEX
   HX - HEAT INDEX
  VSB - VISIBILITY
$$




USA.gov is the U.S. government's official web portal to all federal, state and local government web resources and services.